GW6047 Weather Reports


time (UTC)temp
F
wind
direction
speed
knots
gust
knots
rain 1hr
in
rain 24hr
in
rain mn
in
humidity
%
barometer
mb
20260505140351 74 202 4.3 5.2 0.00 0.02 0.02 52 1008.1
20260505124805 63 177 0.9 0.9 0.00 0.02 0.02 77 1008.9
20260505124302 62 143 0.9 0.9 0.00 0.02 0.02 76 1008.6
20260505123757 61 213 0.9 0.9 0.00 0.02 0.02 79 1008.7
20260505123254 61 216 0.9 0.9 0.00 0.02 0.02 84 1008.8
20260505122751 60 202 0.9 0.9 0.00 0.02 0.02 86 1009.0
20260505122248 59 205 0.0 0.9 0.00 0.02 0.02 89 1009.0
20260505121745 58 135 1.7 1.7 0.00 0.02 0.02 90 1009.0
20260505121242 57 161 0.0 0.0 0.00 0.02 0.02 93 1008.9
20260505120738 56 200 0.0 0.0 0.00 0.02 0.02 94 1008.9
20260505120234 55 204 0.0 0.0 0.00 0.02 0.02 95 1009.2
20260505115732 55 200 0.0 0.0 0.00 0.02 0.02 95 1009.2
20260505115231 55 201 0.0 0.0 0.00 0.02 0.02 96 1009.0
20260505114728 54 203 0.0 0.0 0.00 0.02 0.02 96 1009.2
20260505114223 54 202 0.0 0.0 0.00 0.02 0.02 97 1009.1
20260505113720 54 205 0.0 0.0 0.00 0.02 0.02 97 1008.9
20260505113217 54 201 0.0 0.0 0.00 0.02 0.02 97 1008.9
20260505112714 54 208 0.0 0.0 0.00 0.02 0.02 97 1008.9
20260505112212 54 212 0.0 0.0 0.00 0.02 0.02 97 1008.8
20260505111711 54 204 0.0 0.0 0.00 0.02 0.02 98 1008.7
20260505111207 54 200 0.0 0.0 0.00 0.02 0.02 99 1008.9
20260505110703 53 192 0.0 0.0 0.00 0.02 0.02 99 1008.9
20260505110201 53 199 0.0 0.0 0.00 0.02 0.02 99 1008.8
20260505102136 51 204 0.0 0.0 0.00 0.02 0.02 99 1008.5
20260505101635 51 206 0.0 0.0 0.00 0.02 0.02 99 1008.6
20260505101131 51 201 0.0 0.0 0.00 0.02 0.02 99 1008.3
20260505100627 51 201 0.0 0.0 0.00 0.02 0.02 99 1008.4
20260505100124 51 191 0.0 0.0 0.00 0.02 0.02 99 1008.5
20260505095620 51 199 0.0 0.0 0.00 0.02 0.02 99 1008.5
20260505095117 51 192 0.0 0.0 0.00 0.02 0.02 99 1008.5
20260505094614 50 195 0.0 0.0 0.00 0.02 0.02 99 1008.8
20260505094110 50 197 0.0 0.0 0.00 0.02 0.02 99 1008.6
20260505093606 50 201 0.0 0.0 0.00 0.02 0.02 99 1008.6
20260505093104 50 201 0.0 0.0 0.00 0.02 0.02 99 1008.6
20260505092601 50 201 0.0 0.0 0.00 0.02 0.02 99 1008.5
20260505092100 50 202 0.0 0.0 0.00 0.02 0.02 99 1008.3
20260505091556 50 211 0.0 0.0 0.00 0.02 0.02 99 1008.3
20260505091055 50 199 0.0 0.0 0.00 0.02 0.02 99 1008.0
20260505090552 49 198 0.0 0.0 0.00 0.02 0.02 99 1007.9
20260505090050 48 203 0.0 0.0 0.00 0.02 0.02 99 1008.0
20260505085547 50 208 0.0 0.0 0.00 0.02 0.02 99 1008.1
20260505085046 49 201 0.0 0.0 0.00 0.02 0.02 99 1007.7
20260505084543 49 206 0.0 0.0 0.00 0.02 0.02 99 1007.9
20260505084041 49 202 0.0 0.0 0.00 0.02 0.02 99 1008.0
20260505083537 48 201 0.0 0.0 0.00 0.02 0.02 99 1008.1
20260505083034 48 202 0.0 0.0 0.00 0.02 0.02 98 1008.0
20260505082530 50 198 0.0 0.0 0.00 0.02 0.02 99 1007.9
20260505082027 49 200 0.0 0.0 0.00 0.02 0.02 98 1008.1
20260505081523 50 200 0.0 0.0 0.00 0.02 0.02 98 1008.0
20260505081020 50 200 0.0 0.0 0.00 0.02 0.02 98 1008.4
20260505080517 50 200 0.0 0.0 0.00 0.02 0.02 98 1007.8
20260505080013 50 200 0.0 0.0 0.00 0.02 0.02 98 1008.1
20260505075509 50 201 0.0 0.0 0.00 0.02 0.02 98 1007.9
20260505075006 50 201 0.0 0.0 0.00 0.02 0.02 98 1007.9
20260505074504 50 199 0.0 0.0 0.00 0.02 0.02 98 1007.9
20260505074000 51 197 0.0 0.0 0.00 0.02 0.02 98 1007.7
20260505073458 51 199 0.0 0.0 0.00 0.02 0.02 98 1007.6
20260505072955 51 206 0.0 0.0 0.00 0.02 0.02 98 1007.7
20260505072451 51 202 0.0 0.0 0.00 0.02 0.02 98 1007.5
20260505071948 51 201 0.0 0.0 0.00 0.02 0.02 97 1007.5
20260505071443 52 202 0.0 0.0 0.00 0.02 0.02 97 1007.6
20260505070942 52 197 0.0 0.0 0.00 0.02 0.02 97 1007.4
20260505070438 52 200 0.0 0.0 0.00 0.02 0.02 97 1007.7
20260505065934 52 200 0.0 0.0 0.00 0.02 0.02 96 1007.4
20260505065431 52 196 0.0 0.0 0.00 0.02 0.02 96 1007.4
20260505064927 53 201 0.0 0.0 0.00 0.02 0.02 96 1007.4
20260505064424 53 201 0.0 0.0 0.00 0.02 0.02 96 1007.5
20260505063923 53 202 0.0 0.0 0.00 0.02 0.02 95 1007.6
20260505063419 54 210 0.0 0.0 0.00 0.02 0.02 95 1007.6
20260505062915 54 202 0.0 0.0 0.00 0.02 0.02 95 1007.6
20260505062413 54 206 0.0 0.0 0.00 0.02 0.02 94 1007.6
20260505061909 55 206 0.0 0.0 0.00 0.02 0.02 94 1007.7
20260505061408 55 201 0.0 0.0 0.00 0.02 0.02 93 1007.5
20260505060905 55 204 0.0 0.0 0.00 0.02 0.02 93 1007.5
20260505060401 56 162 0.0 0.0 0.12 0.02 0.02 91 1007.5
20260505055858 55 257 0.0 0.0 0.12 0.02 0.02 88 1007.5
20260505055355 56 196 0.0 0.0 0.05 0.01 0.01 86 1007.6
20260505054852 56 215 0.0 0.0 0.00 0.00 0.00 84 1007.9
20260505054349 56 202 0.0 0.0 0.00 0.00 0.00 83 1007.7
20260505053847 56 206 0.0 0.0 0.00 0.00 0.00 83 1007.8
20260505053344 56 202 0.0 0.0 0.00 0.00 0.00 82 1007.7
20260505052841 56 203 0.0 0.0 0.00 0.00 0.00 82 1007.7
20260505052337 55 198 0.0 0.0 0.00 0.00 0.00 82 1007.9
20260505051835 55 197 0.0 0.0 0.00 0.00 0.00 85 1008.0
20260505051332 55 198 0.0 0.0 0.00 0.00 0.00 84 1007.9
20260505050830 55 192 0.0 0.0 0.00 0.00 0.00 84 1008.0
20260505050328 54 202 0.0 0.0 0.00 0.00 0.00 85 1008.1
20260505041757 55 196 0.0 0.0 0.00 0.00 0.00 83 1007.8
20260505041255 55 202 0.0 0.0 0.00 0.00 0.00 83 1008.1
20260505040752 54 203 0.0 0.0 0.00 0.00 0.00 84 1007.7
20260505040249 54 202 0.0 0.0 0.00 0.00 0.00 84 1007.8
20260505035746 54 200 0.0 0.0 0.00 0.00 0.00 84 1007.8
20260505035242 54 200 0.0 0.0 0.00 0.00 0.00 83 1007.6
20260505034739 54 202 0.0 0.0 0.00 0.00 0.00 83 1007.7
20260505034236 55 202 0.0 0.0 0.00 0.00 0.00 83 1007.4
20260505033732 55 202 0.0 0.0 0.00 0.00 0.00 82 1007.4
20260505033230 55 205 0.0 0.0 0.00 0.00 0.00 82 1007.4
20260505032728 54 201 0.0 0.0 0.00 0.00 0.00 83 1007.5
20260505032224 55 201 0.0 0.0 0.00 0.00 0.00 83 1007.5
20260505031721 55 201 0.0 0.0 0.00 0.00 0.00 82 1007.4
20260505031217 55 199 0.0 0.0 0.00 0.00 0.00 81 1007.4
20260505030715 56 202 0.0 0.0 0.00 0.00 0.00 80 1007.6
20260505030211 56 203 0.0 0.0 0.00 0.00 0.00 79 1007.7
20260505025707 57 204 0.0 0.0 0.00 0.00 0.00 77 1007.4
20260505025206 56 211 0.0 0.0 0.00 0.00 0.00 79 1007.4
20260505024703 56 203 0.0 0.0 0.00 0.00 0.00 80 1007.4
20260505024200 57 206 0.0 0.0 0.00 0.00 0.00 80 1007.3
20260505023657 57 199 0.0 0.0 0.00 0.00 0.00 77 1007.3
20260505023154 57 205 0.0 0.0 0.00 0.00 0.00 77 1007.2
20260505022651 57 209 0.0 0.0 0.00 0.00 0.00 79 1007.3
20260505022148 57 199 0.0 0.0 0.00 0.00 0.00 78 1007.5
20260505021645 58 202 0.0 0.0 0.00 0.00 0.00 77 1007.5
20260505021142 58 203 0.0 0.0 0.00 0.00 0.00 76 1007.4
20260505020637 58 204 0.0 0.0 0.00 0.00 0.00 76 1007.5
20260505020133 59 203 0.0 0.0 0.00 0.00 0.00 75 1007.2
20260505015631 59 201 0.0 0.0 0.00 0.00 0.00 75 1007.3
20260505015127 59 196 0.0 0.0 0.00 0.00 0.00 73 1007.3
20260505014624 59 203 0.0 0.0 0.00 0.00 0.00 75 1007.1
20260505014121 59 203 0.0 0.0 0.00 0.00 0.00 74 1007.0
20260505013619 61 204 0.0 0.0 0.00 0.00 0.00 72 1007.3
20260505013116 61 199 0.0 0.0 0.00 0.00 0.00 69 1007.1
20260505012614 61 203 0.0 0.0 0.00 0.00 0.00 68 1007.1
20260505012110 62 203 0.0 0.0 0.00 0.00 0.00 67 1007.1
20260505011606 62 203 0.0 0.0 0.00 0.00 0.00 66 1007.1
20260505011104 62 205 0.0 0.0 0.00 0.00 0.00 64 1007.0
20260505010604 61 206 0.0 0.0 0.00 0.00 0.00 67 1006.9
20260505005557 63 207 0.0 0.0 0.00 0.00 0.00 66 1006.8
20260505005055 63 203 0.0 0.0 0.00 0.00 0.00 63 1006.5
20260505004552 63 203 0.0 0.0 0.00 0.00 0.00 63 1006.8
20260505004048 63 200 0.0 0.9 0.00 0.00 0.00 63 1006.5
20260505003546 64 208 0.9 0.9 0.00 0.00 0.00 62 1006.6
20260505003043 65 202 0.0 0.0 0.00 0.00 0.00 58 1006.7
20260505002543 66 203 0.0 0.0 0.00 0.00 0.00 57 1006.6
20260505002037 67 209 1.7 1.7 0.00 0.00 0.00 53 1006.2
20260505001534 67 202 0.0 0.0 0.00 0.00 0.00 52 1006.5
20260505001031 68 214 0.9 1.7 0.00 0.00 0.00 51 1006.2
20260505000528 68 208 2.6 2.6 0.00 0.00 0.00 48 1006.3
20260505000026 68 212 1.7 1.7 0.00 0.00 0.00 51 1006.3
20260504235522 69 212 0.9 0.9 0.00 0.00 0.00 50 1006.3
20260504235019 70 213 0.9 0.9 0.00 0.00 0.00 48 1006.2
20260504234516 69 218 2.6 2.6 0.00 0.00 0.00 45 1006.2
20260504234013 70 210 2.6 2.6 0.00 0.00 0.00 48 1006.2
20260504233508 72 217 0.9 1.7 0.00 0.00 0.00 45 1006.3
20260504233005 73 213 1.7 1.7 0.00 0.00 0.00 42 1005.7
20260504232502 73 199 0.0 0.9 0.00 0.00 0.00 40 1006.1
20260504232000 73 219 4.3 5.2 0.00 0.00 0.00 39 1005.8
20260504231456 74 201 2.6 4.3 0.00 0.00 0.00 39 1006.1
20260504230952 73 206 2.6 2.6 0.00 0.00 0.00 39 1005.8
20260504230449 73 216 3.5 5.2 0.00 0.00 0.00 40 1006.0
20260504225948 73 189 3.5 4.3 0.00 0.00 0.00 39 1006.0
20260504225444 73 182 2.6 2.6 0.00 0.00 0.00 37 1005.9
20260504224942 73 207 7.0 8.7 0.00 0.00 0.00 38 1006.0
20260504224438 74 195 6.1 7.8 0.00 0.00 0.00 38 1005.8
20260504223935 74 210 2.6 2.6 0.00 0.00 0.00 37 1005.9
20260504223431 75 205 1.7 1.7 0.00 0.00 0.00 39 1006.0
20260504222927 75 205 4.3 6.1 0.00 0.00 0.00 36 1005.9
20260504222425 75 233 6.1 7.0 0.00 0.00 0.00 38 1005.6
20260504221922 75 213 4.3 6.1 0.00 0.00 0.00 38 1005.8
20260504221419 75 226 4.3 5.2 0.00 0.00 0.00 39 1005.7
20260504220916 75 221 5.2 7.0 0.00 0.00 0.00 36 1005.6
20260504220413 75 244 5.2 6.1 0.00 0.00 0.00 37 1005.9
20260504215910 76 216 9.6 13.0 0.00 0.00 0.00 36 1005.7
20260504215406 76 224 6.1 7.0 0.00 0.00 0.00 35 1005.9
20260504214902 76 195 6.1 7.0 0.00 0.00 0.00 36 1005.9
20260504214359 76 225 7.8 8.7 0.00 0.00 0.00 35 1005.9
20260504213856 76 247 4.3 7.8 0.00 0.00 0.00 38 1006.0
20260504213352 74 264 3.5 4.3 0.00 0.00 0.00 37 1006.0
20260504212849 74 220 4.3 6.1 0.00 0.00 0.00 38 1005.9
20260504212345 76 196 5.2 7.0 0.00 0.00 0.00 34 1005.8
20260504211844 75 200 4.3 5.2 0.00 0.00 0.00 36 1005.9
20260504211339 76 226 7.0 8.7 0.00 0.00 0.00 36 1005.8
20260504210837 77 217 7.8 8.7 0.00 0.00 0.00 33 1005.8
20260504210334 76 199 7.8 8.7 0.00 0.00 0.00 33 1005.9
20260504205831 75 204 6.1 7.0 0.00 0.00 0.00 36 1006.0
20260504205329 77 223 6.1 7.8 0.00 0.00 0.00 35 1005.9
20260504204826 75 189 3.5 5.2 0.00 0.00 0.00 37 1006.0
20260504204325 76 237 6.1 7.0 0.00 0.00 0.00 36 1006.1
20260504203824 76 232 4.3 6.1 0.00 0.00 0.00 36 1006.0
20260504203320 76 231 5.2 7.0 0.00 0.00 0.00 34 1006.0
20260504202816 75 230 3.5 4.3 0.00 0.00 0.00 36 1005.9
20260504202314 75 217 4.3 7.0 0.00 0.00 0.00 36 1006.3
20260504201810 74 210 4.3 5.2 0.00 0.00 0.00 35 1006.3
20260504201308 76 222 6.1 8.7 0.00 0.00 0.00 35 1006.3
20260504200805 75 237 4.3 5.2 0.00 0.00 0.00 33 1006.7
20260504200301 76 249 5.2 7.8 0.00 0.00 0.00 33 1006.6
20260504195757 76 217 7.0 9.6 0.00 0.00 0.00 34 1006.6
20260504195253 76 217 6.1 7.8 0.00 0.00 0.00 33 1006.7
20260504194750 76 216 7.0 7.8 0.00 0.00 0.00 33 1006.6
20260504194247 77 265 10.4 14.8 0.00 0.00 0.00 33 1006.7
20260504193743 77 212 7.8 8.7 0.00 0.00 0.00 33 1006.8
20260504193240 77 220 3.5 5.2 0.00 0.00 0.00 33 1006.9
20260504192739 76 238 3.5 5.2 0.00 0.00 0.00 34 1006.8
20260504192236 77 233 5.2 7.0 0.00 0.00 0.00 33 1007.2
20260504191735 76 211 6.1 7.0 0.00 0.00 0.00 36 1007.2
20260504191231 76 249 7.8 9.6 0.00 0.00 0.00 36 1007.2
20260504190726 76 224 6.1 7.0 0.00 0.00 0.00 34 1007.1
20260504190223 75 240 8.7 11.3 0.00 0.00 0.00 32 1007.4
20260504185720 76 219 8.7 9.6 0.00 0.00 0.00 36 1007.3
20260504185217 75 255 7.0 9.6 0.00 0.00 0.00 35 1007.5
20260504184713 75 188 4.3 5.2 0.00 0.00 0.00 33 1007.5
20260504184209 74 209 8.7 11.3 0.00 0.00 0.00 38 1007.6
20260504183705 75 248 4.3 6.1 0.00 0.00 0.00 35 1007.8
20260504183202 74 143 6.1 7.0 0.00 0.00 0.00 37 1008.0
20260504182700 74 221 6.1 7.8 0.00 0.00 0.00 35 1008.0
20260504182157 73 188 7.8 7.8 0.00 0.00 0.00 38 1007.9
20260504181655 74 215 6.1 7.8 0.00 0.00 0.00 38 1008.1
20260504181152 73 211 5.2 6.1 0.00 0.00 0.00 35 1007.8
20260504180651 74 217 3.5 5.2 0.00 0.00 0.00 42 1008.0
20260504180149 73 178 4.3 6.1 0.00 0.00 0.00 36 1008.4
20260504175646 73 171 6.1 7.0 0.00 0.00 0.00 38 1008.5
20260504175142 74 220 5.2 6.1 0.00 0.00 0.00 38 1008.3
20260504174641 72 205 5.2 6.1 0.00 0.00 0.00 39 1008.6
20260504174137 73 222 7.8 8.7 0.00 0.00 0.00 39 1008.6
20260504173634 72 206 4.3 4.3 0.00 0.00 0.00 37 1008.7
20260504173132 72 155 6.1 7.8 0.00 0.00 0.00 39 1008.9
20260504172628 72 205 5.2 6.1 0.00 0.00 0.00 38 1009.1
20260504172125 72 190 6.1 7.0 0.00 0.00 0.00 39 1008.9
20260504171621 71 215 5.2 6.1 0.00 0.00 0.00 39 1009.0
20260504171119 71 176 4.3 6.1 0.00 0.00 0.00 40 1009.1
20260504170614 71 207 7.0 7.8 0.00 0.00 0.00 41 1009.3
20260504170112 72 198 7.0 7.8 0.00 0.00 0.00 38 1009.3
20260504150958 66 217 4.3 4.3 0.00 0.00 0.00 42 1010.8
20260504150455 65 222 2.6 2.6 0.00 0.00 0.00 41 1011.0